Weather reports worldwide

Advertisment
Piacenza, Italy (16084): temperature & dewpoint: 21.02.2020 15:00:00 - 27.02.2020 15:00:00 (CET)Piacenza, Italy (16084): wind speed: 21.02.2020 15:00:00 - 27.02.2020 15:00:00 (CET)Piacenza, Italy (16084): wind direction: 21.02.2020 15:00:00 - 27.02.2020 15:00:00 (CET)Piacenza, Italy (16084): reduced air pressure: 21.02.2020 15:00:00 - 27.02.2020 15:00:00 (CET)Piacenza, Italy (16084): visibility: 21.02.2020 15:00:00 - 27.02.2020 15:00:00 (CET)Piacenza, Italy (16084): sunshine duration: 21.02.2020 15:00:00 - 27.02.2020 15:00:00 (CET)
Date & Time tt [°C] td [°C] ff [km/h] ff [kn] dd ppp [hPa] vv [km] sd [min]
27.02.2020 15:00:00 12,0 -10,0 11 6 NNE - 10 -
27.02.2020 14:00:00 11,0 -12,0 9 5 NE - 10 -
27.02.2020 13:00:00 11,0 -12,4 8 4 NE 1008,9 20 60
27.02.2020 12:00:00 11,0 -15,0 9 5 NNE - 10 -
27.02.2020 11:00:00 10,0 -14,0 4 2 E - 10 -
27.02.2020 10:00:00 8,6 -8,4 8 4 W 1011,3 30 60
27.02.2020 09:00:00 4,0 -7,0 11 6 W - 10 -
27.02.2020 08:00:00 1,0 -5,0 13 7 W - 10 -
27.02.2020 07:00:00 1,4 -6,2 15 8 W 1011,4 30 0
27.02.2020 06:00:00 - - - - - - - -
27.02.2020 05:00:00 - - - - - - - -
27.02.2020 04:00:00 - - - - - - - -
27.02.2020 03:00:00 - - - - - - - -
27.02.2020 02:00:00 - - - - - - - -
27.02.2020 01:00:00 - - - - - - - -
27.02.2020 00:00:00 - - - - - - - -
26.02.2020 23:00:00 - - - - - - - -
26.02.2020 22:00:00 - - - - - - - -
26.02.2020 21:00:00 - - - - - - - -
26.02.2020 20:00:00 - - - - - - - -
26.02.2020 19:00:00 10,0 -20,2 28 15 WNW 1002,2 20 0
26.02.2020 18:00:00 11,0 -19,0 26 14 NW - 10 -
26.02.2020 17:00:00 12,0 -19,0 29 16 WNW - 10 -
26.02.2020 16:00:00 12,2 -16,4 39 21 NW 998,5 30 6
26.02.2020 15:00:00 12,0 -16,0 31 17 NW - 10 -
26.02.2020 14:00:00 14,0 -17,0 35 19 NW - 10 -
26.02.2020 13:00:00 15,0 -15,2 35 19 WNW 996,9 30 60
26.02.2020 12:00:00 15,0 -15,0 26 14 WNW - 10 -
26.02.2020 11:00:00 14,0 -14,0 21 11 WNW - 10 -
26.02.2020 10:00:00 13,2 -7,5 24 13 W 999,2 20 60
26.02.2020 09:00:00 11,0 1,0 13 7 W - 10 -
26.02.2020 08:00:00 4,0 4,0 2 1 W - 10 -
26.02.2020 07:00:00 4,0 4,0 5 3 SSW 998,3 7 0
26.02.2020 06:00:00 - - - - - - - -
26.02.2020 05:00:00 - - - - - - - -
26.02.2020 04:00:00 - - - - - - - -
26.02.2020 03:00:00 - - - - - - - -
26.02.2020 02:00:00 - - - - - - - -
26.02.2020 01:00:00 - - - - - - - -
26.02.2020 00:00:00 - - - - - - - -
25.02.2020 23:00:00 - - - - - - - -
25.02.2020 22:00:00 - - - - - - - -
25.02.2020 21:00:00 - - - - - - - -
25.02.2020 20:00:00 - - - - - - - -
25.02.2020 19:00:00 11,4 11,2 2 1 E 1005,3 4,0 0
25.02.2020 18:00:00 13,0 11,0 4 2 E - 4,0 -
25.02.2020 17:00:00 13,0 10,0 5 3 NE - 4,0 -
25.02.2020 16:00:00 14,0 9,8 8 4 NNE 1006,4 4,0 0
25.02.2020 15:00:00 14,0 10,0 8 4 NNE - 4,0 -
25.02.2020 14:00:00 14,0 10,0 9 5 NE - 5 -
25.02.2020 13:00:00 12,8 9,4 8 4 ENE 1009,0 6 0
25.02.2020 12:00:00 13,0 10,0 2 1 NE - 6 -
25.02.2020 11:00:00 12,0 10,0 4 2 NNW - 8 -
25.02.2020 10:00:00 10,2 10,2 2 1 WNW 1011,6 8 0
25.02.2020 09:00:00 9,0 9,0 4 2 S - 8 -
25.02.2020 08:00:00 8,0 8,0 9 5 WSW - 6 -
25.02.2020 07:00:00 8,0 8,0 5 3 W 1012,8 6 0
25.02.2020 06:00:00 - - - - - - - -
25.02.2020 05:00:00 - - - - - - - -
25.02.2020 04:00:00 - - - - - - - -
25.02.2020 03:00:00 - - - - - - - -
25.02.2020 02:00:00 - - - - - - - -
25.02.2020 01:00:00 - - - - - - - -
25.02.2020 00:00:00 - - - - - - - -
24.02.2020 23:00:00 - - - - - - - -
24.02.2020 22:00:00 - - - - - - - -
24.02.2020 21:00:00 - - - - - - - -
24.02.2020 20:00:00 - - - - - - - -
24.02.2020 19:00:00 12,0 10,2 9 5 ESE 1017,2 4,8 0
24.02.2020 18:00:00 14,0 10,0 15 8 E - 5 -
24.02.2020 17:00:00 15,0 10,0 21 11 E - 6 -
24.02.2020 16:00:00 16,4 10,5 18 10 ESE 1017,0 8 60
24.02.2020 15:00:00 17,0 10,0 16 9 ESE - 10 -
24.02.2020 14:00:00 16,0 10,0 13 7 ESE - 10 -
24.02.2020 13:00:00 15,4 10,4 11 6 E 1019,1 12 60
24.02.2020 12:00:00 14,0 10,0 16 9 ESE - 10 -
24.02.2020 11:00:00 13,0 11,0 13 7 E - 10 -
24.02.2020 10:00:00 10,8 9,4 11 6 ESE 1019,5 20 60
24.02.2020 09:00:00 9,0 9,0 11 6 ESE - 10 -
24.02.2020 08:00:00 3,0 3,0 5 3 S - 10 -
24.02.2020 07:00:00 3,4 3,4 4 2 SE 1018,4 15 0
24.02.2020 06:00:00 - - - - - - - -
24.02.2020 05:00:00 - - - - - - - -
24.02.2020 04:00:00 - - - - - - - -
24.02.2020 03:00:00 - - - - - - - -
24.02.2020 02:00:00 - - - - - - - -
24.02.2020 01:00:00 - - - - - - - -
24.02.2020 00:00:00 - - - - - - - -
23.02.2020 23:00:00 - - - - - - - -
23.02.2020 22:00:00 - - - - - - - -
23.02.2020 21:00:00 - - - - - - - -
23.02.2020 20:00:00 - - - - - - - -
23.02.2020 19:00:00 10,0 8,3 0 0 N 1021,6 6 0
23.02.2020 18:00:00 11,0 8,0 4 2 S - 5 -
23.02.2020 17:00:00 13,0 7,0 2 1 NNE - 5 -
23.02.2020 16:00:00 13,8 7,1 4 2 N 1022,8 6 0
23.02.2020 15:00:00 14,0 7,0 5 3 ENE - 6 -
23.02.2020 14:00:00 14,0 8,0 2 1 W - 6 -
23.02.2020 13:00:00 12,4 7,9 5 3 N 1025,4 6 36
23.02.2020 12:00:00 12,0 8,0 9 5 N - 5 -
23.02.2020 11:00:00 11,0 8,0 5 3 N - 5 -
23.02.2020 10:00:00 8,4 6,7 4 2 SW 1027,1 6 0
23.02.2020 09:00:00 6,0 6,0 4 2 SW - 6 -
23.02.2020 08:00:00 5,0 5,0 4 2 SW - 7 -
23.02.2020 07:00:00 4,0 4,0 5 3 WSW 1027,0 8 0
23.02.2020 06:00:00 - - - - - - - -
23.02.2020 05:00:00 - - - - - - - -
23.02.2020 04:00:00 - - - - - - - -
23.02.2020 03:00:00 - - - - - - - -
23.02.2020 02:00:00 - - - - - - - -
23.02.2020 01:00:00 - - - - - - - -
23.02.2020 00:00:00 - - - - - - - -
22.02.2020 23:00:00 - - - - - - - -
22.02.2020 22:00:00 - - - - - - - -
22.02.2020 21:00:00 - - - - - - - -
22.02.2020 20:00:00 - - - - - - - -
22.02.2020 19:00:00 7,2 4,5 4 2 SSW 1031,0 6 0
22.02.2020 18:00:00 11,0 2,0 2 1 N - 6 -
22.02.2020 17:00:00 13,0 2,0 4 2 N - 7 -
22.02.2020 16:00:00 13,0 2,0 4 2 N 1030,7 8 60
22.02.2020 15:00:00 13,0 2,0 8 4 N - 8 -
22.02.2020 14:00:00 12,0 3,0 5 3 NNW - 8 -
22.02.2020 13:00:00 11,4 4,2 4 2 NNE 1032,0 8 60
22.02.2020 12:00:00 10,0 6,0 5 3 NE - 7 -
22.02.2020 11:00:00 9,0 5,0 5 3 N - 6 -
22.02.2020 10:00:00 7,2 4,0 4 2 N 1032,8 6 60
22.02.2020 09:00:00 4,0 4,0 8 4 W - 5 -
22.02.2020 08:00:00 2,0 2,0 8 4 WSW - 5 -
22.02.2020 07:00:00 1,2 1,2 5 3 WSW 1030,9 4,0 0
22.02.2020 06:00:00 - - - - - - - -
22.02.2020 05:00:00 - - - - - - - -
22.02.2020 04:00:00 - - - - - - - -
22.02.2020 03:00:00 - - - - - - - -
22.02.2020 02:00:00 - - - - - - - -
22.02.2020 01:00:00 - - - - - - - -
22.02.2020 00:00:00 - - - - - - - -
21.02.2020 23:00:00 - - - - - - - -
21.02.2020 22:00:00 - - - - - - - -
21.02.2020 21:00:00 - - - - - - - -
21.02.2020 20:00:00 - - - - - - - -
21.02.2020 19:00:00 7,4 4,0 2 1 SSE 1024,9 10 0
21.02.2020 18:00:00 10,0 4,0 9 5 E - 10 -
21.02.2020 17:00:00 12,0 3,0 13 7 ESE - 10 -
21.02.2020 16:00:00 13,0 2,5 9 5 E 1023,0 15 60
21.02.2020 15:00:00 12,0 2,0 5 3 ESE - 10 -

tt = temperature
td = dewpoint
ff = wind speed
dd = wind direction
ppp = reduced air pressure
vv = visibility
sd = sunshine duration

Next stations